Location: Unspecified
(0.0000°N, 0.0000°E)
Time: 04:44:07
(UTC+00:00)

A-11 Canister half - Pass Details

Date: 24 April 2026
Orbit: 1523 x 1685 km, 47.3° (Epoch: 13 May)

Event Time Altitude Azimuth Distance (km) Brightness Sun altitude
Rises 06:01:51 0° 340° (NNW) 4,903 11.6 0.9°
Reaches altitude 10° 06:05:39 10° 351° (N) 3,900 11.2 1.8°
Maximum altitude 06:13:56 29° 48° (NE) 2,634 11.3 3.8°
Drops below altitude 10° 06:21:58 10° 105° (ESE) 3,806 12.4 5.8°
Sets 06:25:34 0° 115° (ESE) 4,768 12.5 6.7°
